Probability
0 0 0 0 0 0 0 0 0 0 1 2 2 1 0 0 0 0 0 0 0 0 0 0 0 0 0 0 0 0 0 0 0 0 0 0 0 0 1 2 2 1 0
0 0 0 0 0 0 0 0 0 0 1 2 2 1 0 0 0 0 0 0 0 0 0 0 0 0 0 0 0 0 0 0 0 0 0 0 0 0 0 1 1 0 0
0 0 0 0 0 0 0 0 0 0 0 1 2 1 0 0 0 0 0 0 0 0 0 0 0 0 0 0 0 0 0 0 0 0 0 0 0 0 0 0 0 0 0
0 0 0 0 0 0 0 0 0 0 0 1 1 1 0 0 0 0 0 0 0 0 0 0 0 0 0 0 0 0 0 0 0 0 0 0 0 0 0 0 0 0 0
0 0 0 0 1 1 0 0 0 0 0 0 0 0 0 0 0 0 0 0 0 0 0 0 0 0 0 0 0 0 0 0 0 0 0 0 0 0 0 0 0 0 0
0 0 0 1 2 2 1 0 0 0 0 0 0 0 0 0 0 0 0 0 0 0 0 0 0 0 0 0 0 0 0 0 0 0 0 0 0 0 0 0 0 0 0
0 0 0 1 2 2 1 0 0 0 0 0 0 0 0 0 0 0 0 0 0 0 0 0 0 0 0 0 0 0 0 0 0 0 0 0 0 0 0 0 0 0 0
0 0 0 0 1 1 0 0 0 0 0 0 0 0 0 0 0 0 0 0 0 0 0 0 0 0 0 0 0 0 0 0 0 0 0 0 0 0 0 0 0 0 0
0 0 0 0 0 0 0 0 0 0 0 0 0 0 0 0 0 0 0 0 0 0 0 0 0 0 0 0 0 0 0 0 0 0 0 0 0 0 0 0 0 0 0
0 0 0 0 0 0 0 0 0 0 0 0 0 0 0 0 0 0 0 0 0 0 0 0 0 0 0 0 0 0 0 0 0 0 0 0 0 0 0 0 0 0 0
0 0 0 0 0 0 0 0 0 0 0 0 0 0 0 0 0 0 0 0 0 0 0 0 0 0 0 0 0 0 0 0 0 0 0 0 0 0 0 0 0 0 0
0 0 0 0 0 0 0 0 0 0 0 0 0 0 0 0 0 0 0 0 0 0 0 0 0 0 0 0 0 0 0 0 0 0 0 0 0 0 0 0 0 0 0
0 0 0 0 0 0 0 0 0 0 0 0 0 0 0 0 0 0 0 0 0 0 0 0 0 0 0 0 0 0 0 0 0 0 0 0 0 0 0 0 0 0 0
0 0 0 0 0 0 0 0 0 0 0 0 0 0 0 0 0 0 0 0 0 0 0 0 0 0 0 0 0 0 0 0 0 0 0 0 0 0 0 0 0 0 0
0 0 0 0 0 0 0 0 0 0 0 0 0 0 0 0 0 0 0 0 0 0 0 0 0 0 0 0 0 0 0 0 0 0 0 0 0 0 0 0 0 0 0
0 0 0 0 0 0 0 0 0 0 0 0 0 0 0 0 0 0 0 0 0 0 0 0 0 0 0 0 0 0 0 0 0 0 0 0 0 0 0 0 0 0 0
0 0 0 0 0 0 0 0 0 0 0 0 0 0 0 0 0 0 0 0 0 0 0 0 0 0 0 0 0 0 0 0 0 0 0 0 0 0 0 0 0 0 0
0 0 0 0 0 0 0 0 0 0 0 0 0 0 0 0 0 0 0 0 0 0 0 0 0 0 0 0 0 0 0 0 0 0 0 0 0 0 0 0 0 0 0
0 0 0 0 0 0 0 0 0 0 0 0 0 0 0 0 0 0 0 0 0 0 0 0 0 0 0 0 0 0 0 0 0 0 0 0 0 0 0 0 0 0 0
0 0 0 0 0 0 0 0 0 0 0 0 0 0 0 0 0 0 0 0 0 0 0 0 0 0 0 0 0 0 0 0 0 0 0 0 0 0 0 0 0 0 0
0 0 0 0 0 0 0 0 0 0 0 0 0 0 0 0 0 0 0 0 0 0 0 0 0 0 0 0 0 0 0 0 0 0 0 0 0 0 0 0 0 0 0
0 0 0 0 0 0 0 0 0 0 0 0 0 0 0 0 0 0 0 0 0 0 0 0 0 0 0 0 0 0 0 0 0 0 0 0 0 0 0 0 0 0 0
0 0 0 0 0 0 0 0 0 0 0 0 0 0 0 0 0 0 0 0 0 0 1 1 1 1 1 0 0 0 0 0 0 0 0 0 0 0 0 0 0 0 0
0 0 0 0 0 0 0 0 0 0 0 0 0 0 0 0 0 0 0 0 0 0 0 1 1 2 2 1 0 0 0 0 0 0 0 0 0 0 0 0 0 0 0
0 0 0 0 0 0 0 0 0 0 0 0 0 0 0 0 0 0 0 0 0 0 0 0 1 1 2 1 0 0 0 0 0 0 0 0 0 0 0 0 0 0 0
0 0 0 0 0 0 0 0 0 0 0 0 0 0 0 0 0 0 0 0 0 0 0 0 0 0 1 1 0 0 0 0 0 0 0 0 0 0 0 0 0 0 0
Wind_Speed
8 7 5 5 5 5 6 7 7 5 4 2 1 1 1 1 2 2 3 2 2 3 3 3 3 2 2 3 4 3 5 4 3 3 3 2 1 1 1 1 1 0 1
7 7 6 5 4 4 5 6 6 6 5 3 2 2 2 0 2 1 2 1 2 3 4 4 3 3 2 3 3 3 3 3 3 2 2 2 2 3 2 1 1 1 1
6 6 5 4 4 4 3 4 5 6 6 4 2 2 1 1 1 1 1 1 1 1 2 3 3 3 2 2 3 3 4 3 3 2 2 2 2 2 2 2 2 1 1
5 5 4 4 4 4 3 4 5 5 5 5 3 1 1 0 1 1 1 1 2 1 0 2 3 3 2 2 3 3 3 3 3 3 2 1 0 0 1 2 2 2 2
6 6 5 4 4 5 4 4 4 5 5 4 3 1 0 1 0 1 1 1 1 2 1 1 2 2 2 2 2 3 2 2 2 2 2 2 2 1 0 1 1 2 1
6 6 6 5 5 5 4 4 4 4 3 2 3 2 1 1 1 1 0 1 1 2 2 1 2 1 1 1 2 2 2 1 2 2 2 1 1 2 1 0 0 0 1
6 6 5 5 4 4 3 3 4 3 3 2 2 3 3 2 2 2 2 2 1 1 1 1 1 1 1 1 1 2 2 1 1 1 1 2 1 1 1 0 1 1 1
6 6 5 5 4 4 3 2 3 3 2 2 2 2 2 2 1 2 1 2 1 1 1 1 2 1 1 2 1 2 3 2 1 2 1 1 1 1 0 0 0 1 1
6 6 5 4 4 4 3 2 2 2 2 2 2 1 1 1 1 1 2 2 1 1 1 1 2 2 2 1 2 1 3 2 1 1 2 1 1 1 1 0 1 1 0
7 6 5 5 4 4 3 3 2 2 1 1 1 1 1 1 1 2 2 2 2 2 1 3 3 3 3 3 2 2 2 3 2 2 1 2 1 1 1 1 1 1 2
6 6 5 5 5 4 3 3 2 2 1 1 1 1 1 1 1 2 2 2 3 3 3 4 3 3 3 3 3 3 3 3 3 2 2 2 2 1 1 1 1 1 1
6 6 5 5 5 4 4 4 3 3 2 2 2 2 1 1 2 2 2 3 4 3 3 3 3 3 3 3 3 3 4 4 4 3 2 2 2 2 1 1 2 2 1
6 6 5 5 4 4 4 4 4 3 2 2 2 3 2 2 3 3 3 3 4 4 4 4 3 3 3 3 4 4 4 4 4 4 3 3 2 2 2 2 2 2 1
6 5 4 4 4 4 3 4 3 3 2 2 2 2 3 3 3 4 4 4 4 5 5 4 4 3 3 4 4 3 4 5 5 4 4 4 3 3 3 2 2 2 2
6 5 4 4 3 3 3 3 3 3 3 2 2 2 3 3 3 4 4 5 5 6 5 5 5 4 3 3 3 3 5 5 5 5 5 5 6 5 3 2 2 2 2
5 5 5 4 3 4 4 4 3 3 3 3 3 3 3 4 4 4 4 5 5 5 5 5 5 5 5 4 4 3 5 6 6 6 5 5 6 8 9 7 6 4 3
5 4 4 4 3 4 4 3 3 3 4 4 4 4 4 4 4 5 5 5 5 5 5 6 6 6 6 7 7 7 5 6 7 7 5 5 5 8 7 8 9 8 8
5 4 3 3 3 4 4 4 3 3 4 4 4 4 4 4 4 5 5 5 5 5 5 6 6 6 7 8 8 8 6 6 7 8 8 7 6 6 7 7 7 7 7
5 4 3 3 4 5 5 4 4 4 4 5 5 5 5 5 5 5 5 5 5 6 6 6 6 7 7 9 9 7 4 6 8 8 8 7 6 8 10 8 7 7 6
4 4 3 3 4 4 4 4 4 5 5 5 5 6 5 5 5 5 5 5 5 6 6 6 7 7 7 9 9 7 4 5 6 7 7 9 8 8 7 7 7 8 7
5 3 3 3 3 4 4 4 5 5 5 5 5 5 6 6 5 5 4 5 5 6 6 7 7 7 8 9 8 7 4 5 6 6 6 6 9 9 9 8 7 9 7
4 3 2 2 2 2 3 3 4 4 4 4 5 5 6 6 6 5 5 5 6 6 6 6 7 6 6 7 8 10 9 8 6 6 5 6 9 10 11 9 9 11 9
4 3 2 1 1 1 2 2 3 3 4 5 5 5 6 5 5 5 5 5 5 5 5 5 6 6 6 7 9 9 9 11 8 7 10 11 11 10 8 12 12 9 6
4 3 2 1 0 1 1 1 2 3 4 5 5 5 5 5 5 5 4 4 4 5 5 6 6 7 6 6 5 5 6 8 9 8 10 12 12 9 10 9 8 7 7
3 3 2 1 1 1 1 1 2 3 5 5 5 5 5 5 5 5 5 6 5 5 6 6 6 7 8 8 12 9 7 6 7 9 7 6 6 6 6 6 6 6 7
3 2 2 2 2 2 2 2 2 3 4 5 5 4 4 4 4 5 6 8 9 12 12 12 12 10 12 16 17 17 16 16 15 10 7 7 7 8 8 7 7 7 8
Wind_Direction
143 133 132 125 134 141 135 135 142 137 119 105 94 89 83 35 76 72 73 35 11 14 0 349 348 2 6 1 356 348 336 335 335 343 336 327 336 33 40 28 50 8 48
130 132 136 135 145 140 146 148 141 134 124 120 127 132 118 109 107 88 97 44 33 22 356 359 344 350 358 10 351 350 341 333 346 346 342 341 358 7 13 21 40 50 43
104 114 118 126 135 137 144 132 132 131 127 135 115 80 81 316 88 136 123 121 94 57 6 344 339 337 2 8 353 2 357 339 330 356 18 10 349 334 343 12 31 43 39
97 105 108 112 125 129 126 131 132 132 131 133 122 143 177 163 163 147 136 210 159 130 56 329 323 329 353 15 354 14 352 344 336 337 345 327 309 353 333 342 10 28 43
83 92 89 89 91 96 98 107 119 118 124 134 140 195 301 303 352 82 118 262 180 166 161 283 307 324 351 21 0 351 351 352 353 337 333 337 343 319 157 308 338 9 18
81 86 84 82 80 83 89 93 104 105 115 139 160 185 222 266 285 268 216 270 235 191 177 204 278 308 341 3 343 329 340 335 338 335 346 353 358 335 342 318 314 347 312
77 80 89 95 96 99 105 113 116 118 136 183 209 198 210 237 242 235 229 251 267 210 184 175 259 273 314 315 310 317 310 308 325 335 341 336 327 313 333 23 321 307 279
78 77 85 97 106 110 119 130 133 140 160 205 231 230 213 216 238 232 244 246 252 224 152 191 258 259 287 310 300 297 301 307 328 345 348 319 317 321 327 166 122 339 328
82 79 77 89 104 113 118 119 127 141 166 217 230 252 283 238 259 276 266 264 265 248 195 245 248 233 222 257 303 298 304 317 327 329 329 316 289 291 305 263 171 154 242
83 76 65 61 74 87 94 100 99 110 136 238 277 302 310 310 296 284 293 301 297 290 254 251 254 247 220 204 220 270 287 302 273 232 252 297 308 314 299 270 259 196 180
88 82 73 61 59 66 76 83 83 76 64 339 303 341 299 303 300 289 291 291 283 270 260 251 251 253 241 217 200 225 252 277 286 281 231 239 239 275 294 287 271 249 192
93 88 79 72 63 59 56 57 53 57 47 8 350 348 351 323 300 290 279 278 278 274 272 279 273 267 257 245 224 224 239 242 257 271 281 268 242 221 260 282 280 261 222
93 86 80 73 67 61 52 49 41 38 49 36 5 355 350 338 322 316 308 301 299 294 284 276 272 273 270 266 254 235 240 237 238 236 240 254 253 234 239 240 256 267 252
96 89 86 83 79 74 64 52 36 22 32 43 25 1 342 349 340 329 323 317 313 307 301 294 283 272 266 263 268 273 264 257 245 231 225 225 221 222 238 236 239 250 247
100 92 86 77 74 71 64 56 40 22 21 35 26 2 342 349 342 332 328 323 316 311 306 307 306 299 287 277 298 297 292 287 273 251 231 219 210 204 209 222 234 248 237
101 93 85 74 60 63 55 44 32 19 18 29 21 3 354 352 344 333 329 321 312 307 310 307 301 297 295 289 278 284 296 293 286 274 251 226 215 211 212 217 216 212 218
104 87 76 67 48 51 48 36 25 20 24 28 16 3 353 344 339 334 326 312 305 303 301 298 294 288 285 278 270 264 275 280 280 279 272 261 234 209 209 214 221 226 228
110 91 72 65 47 49 44 28 17 25 30 25 8 355 350 343 334 324 315 307 306 306 295 289 287 286 285 276 268 264 261 271 271 269 265 261 252 226 210 206 211 217 220
106 92 67 58 46 42 31 17 11 22 31 19 356 349 346 335 326 319 311 307 305 299 294 292 287 283 282 272 265 260 263 267 271 269 266 263 256 240 224 212 213 216 219
103 87 68 50 44 35 23 14 12 20 21 8 350 342 332 322 315 310 308 308 303 297 299 297 291 286 283 280 269 256 263 270 278 278 270 262 258 254 238 226 216 219 214
109 98 80 61 45 24 16 15 15 13 5 353 340 326 322 316 309 309 309 308 306 307 304 299 295 292 289 293 284 265 259 267 277 280 277 266 255 248 241 242 231 223 216
124 120 105 80 58 28 16 14 10 357 348 336 326 319 316 316 323 318 311 312 314 310 306 306 308 304 302 300 299 288 267 273 270 272 276 282 275 256 247 243 246 238 222
137 131 125 108 58 33 28 357 346 340 330 321 317 313 315 318 323 326 322 317 314 310 309 311 309 308 308 303 300 299 296 292 282 280 285 289 285 270 254 242 239 236 223
143 144 147 161 244 8 346 319 327 324 319 314 312 312 318 325 329 326 316 315 314 314 314 312 307 305 304 306 310 303 297 294 289 284 287 286 275 262 251 246 237 228 220
151 159 169 183 256 287 294 309 324 326 319 316 320 323 325 321 316 312 307 307 294 292 296 293 296 302 301 298 304 304 299 295 286 293 286 278 272 258 248 237 227 224 224
168 176 179 200 250 280 291 296 310 314 315 317 318 313 311 309 305 302 304 296 289 293 292 285 284 289 287 292 296 296 293 291 288 290 278 268 258 253 243 236 232 223 223